Theta_e
317 317 318 319 320 322 322 322 322 322 324 323 319 317 323 326 318 314 329 339 326 323 327 327 337 348 341 340 344 340 337 336 335 341 347 344 338 340 345 349 351 354 355 357 357 354 350 349 349 348 348 348 348 348 350 350 349 350 352 353 353 354 355 356 356 356 356 357 358 358 359 358 358 358 357 357 357 357 356 356 356 356 356 355 355 354 353
317 316 317 320 320 321 320 321 321 321 323 323 321 322 323 323 321 320 332 339 330 326 327 324 331 344 341 340 341 334 330 334 339 345 348 343 338 340 348 352 350 349 352 354 355 356 354 351 350 349 348 348 348 349 349 350 350 350 352 351 351 354 356 355 354 354 355 357 358 358 358 358 357 358 358 358 357 357 357 356 356 356 356 356 356 355 354
317 316 317 319 319 320 319 320 321 321 322 322 321 323 322 322 323 321 327 333 331 329 331 330 334 339 337 335 336 336 339 343 344 347 346 345 346 346 346 347 345 345 349 351 353 356 356 354 351 348 348 348 348 349 349 349 350 350 351 350 351 353 355 353 353 354 355 356 357 358 358 358 358 358 358 358 358 358 357 357 357 356 356 356 356 356 356
316 316 317 318 318 319 318 318 320 321 321 321 322 323 323 322 322 322 321 323 326 330 332 331 333 333 331 332 335 338 343 343 344 348 351 355 356 350 344 343 343 344 345 347 351 352 351 352 351 348 347 348 348 349 349 349 350 350 352 352 352 353 354 354 354 355 355 356 357 357 358 358 358 358 358 358 359 358 358 358 358 357 357 357 356 356 356
317 316 316 317 318 318 317 317 320 321 321 321 321 322 324 324 323 322 320 320 326 333 332 330 331 330 330 334 337 338 343 345 346 346 347 351 352 345 342 343 342 342 341 343 347 349 349 351 351 348 347 348 349 348 348 349 349 350 351 352 352 353 355 355 354 355 356 357 357 358 358 358 358 358 358 358 359 359 358 358 358 358 358 357 357 357 357
316 315 315 317 319 319 318 319 323 326 328 328 324 321 323 323 323 323 323 324 329 333 332 331 331 330 333 338 338 336 339 345 346 344 347 350 348 344 345 345 344 343 342 342 345 349 350 349 348 348 346 346 347 347 347 348 349 349 351 351 352 354 355 355 355 356 357 358 358 358 358 358 359 359 359 359 359 359 359 359 358 359 358 358 358 358 357
315 316 317 319 320 321 319 321 329 333 334 336 333 327 325 324 323 324 324 326 329 332 333 331 330 334 343 348 345 340 340 345 348 347 352 355 353 352 354 354 352 351 348 345 345 347 347 346 347 349 348 346 347 347 347 348 348 349 351 351 352 355 356 356 357 357 358 358 359 360 359 359 359 359 359 359 359 359 359 359 358 359 358 358 358 357 357
314 316 318 320 322 320 316 323 335 336 337 340 337 330 327 328 326 325 324 325 328 332 333 330 332 341 348 352 353 351 349 351 351 351 353 354 354 355 355 355 355 355 353 350 346 345 345 345 346 348 348 348 349 349 348 348 349 350 351 352 354 355 356 357 358 358 359 359 360 360 360 359 359 359 359 359 359 359 359 358 358 359 358 358 358 358 358
314 315 316 319 319 317 318 329 338 337 337 341 340 337 336 337 336 336 334 329 325 327 328 327 333 340 342 346 351 352 352 351 350 350 351 351 351 352 352 353 354 356 356 355 350 346 346 345 346 348 349 349 350 352 352 351 351 352 354 355 356 356 356 358 358 358 358 359 360 360 360 360 360 359 360 360 360 359 359 359 359 359 359 358 358 358 358
314 314 315 317 317 317 324 335 337 335 335 337 338 339 340 341 340 340 341 340 336 333 330 329 336 341 338 336 344 351 351 350 349 349 349 348 349 350 350 351 353 355 357 354 349 347 347 347 348 348 349 350 352 354 355 354 353 354 355 356 356 356 358 358 357 357 356 357 358 359 360 360 360 360 360 360 360 360 359 359 359 358 358 358 358 358 358
314 313 313 315 317 319 329 337 336 333 334 336 337 334 335 340 339 337 339 342 344 344 340 336 340 341 333 329 340 352 351 349 348 348 349 348 348 349 350 351 352 355 357 355 351 350 353 353 351 348 348 350 353 355 356 355 355 355 355 356 357 357 358 357 355 355 356 357 358 359 360 361 360 360 361 361 361 360 359 359 359 359 359 359 359 359 358
315 315 313 314 316 319 326 334 335 333 334 337 334 328 331 338 337 335 338 342 344 347 347 342 338 336 332 333 345 352 349 348 347 346 348 347 346 348 351 351 352 354 357 357 356 356 357 355 352 351 351 352 354 357 358 356 355 356 357 357 357 356 356 356 355 356 358 358 359 359 360 360 360 361 361 361 360 360 359 359 359 359 359 359 359 359 359
314 315 315 314 315 317 323 330 334 333 334 335 333 330 334 337 335 336 339 341 343 347 348 344 340 342 347 350 352 350 347 346 345 344 345 345 345 347 348 349 351 353 354 354 354 354 355 354 353 353 354 356 356 358 358 357 356 357 356 355 354 353 355 356 357 358 359 359 359 359 360 361 361 361 360 360 360 360 360 360 360 359 359 359 359 359 359
313 315 316 315 316 322 328 331 333 332 330 331 333 334 334 334 334 336 337 338 343 347 347 346 344 347 348 348 348 348 346 345 345 343 343 344 345 346 347 348 349 351 352 353 352 352 353 354 355 354 355 357 358 358 358 359 358 358 356 355 354 354 354 356 357 358 359 359 360 360 361 361 362 361 361 361 361 361 360 360 360 360 360 360 359 359 359
314 314 315 316 320 328 333 331 332 334 332 333 335 335 334 333 333 334 334 336 341 344 346 346 344 346 348 347 346 346 344 344 343 342 342 343 344 345 346 346 348 350 351 350 350 350 351 353 355 356 357 359 359 359 360 359 357 356 356 355 354 355 355 356 357 359 359 360 360 360 362 362 362 362 362 362 362 362 361 361 361 361 360 360 359 359 359
314 314 316 320 326 331 333 331 334 337 335 333 333 333 334 333 331 331 333 335 336 340 344 346 344 346 347 345 343 344 343 343 343 343 343 343 343 344 345 346 347 349 349 348 348 348 349 350 352 356 359 360 360 359 358 356 355 357 359 357 355 355 356 356 357 358 360 360 360 361 362 363 362 362 363 363 362 362 362 361 361 361 360 360 360 360 360
318 318 320 324 327 329 330 332 335 334 331 330 330 330 332 331 329 329 331 333 334 337 341 344 344 344 343 342 342 343 343 343 343 344 344 344 344 345 345 345 346 346 347 347 346 346 347 348 348 351 354 357 356 355 354 354 356 359 360 360 359 358 357 357 357 358 359 359 361 362 362 362 363 363 364 364 363 363 362 362 361 361 361 361 361 360 360
319 320 323 325 327 328 330 331 332 330 329 328 328 329 330 329 328 328 330 331 333 334 338 342 343 342 342 342 343 343 343 343 343 344 344 343 344 345 345 345 345 345 346 346 345 345 345 345 346 347 348 350 350 350 351 353 355 358 360 362 362 360 360 359 358 358 358 359 360 361 361 362 362 363 363 363 363 363 362 361 361 361 361 361 361 360 360
317 320 325 328 330 331 331 330 329 329 329 327 327 329 329 328 327 328 330 330 331 332 335 340 342 341 341 343 343 342 342 342 342 343 343 343 344 345 345 345 345 345 346 346 345 345 345 345 345 345 345 346 346 347 349 350 352 355 359 361 362 362 361 361 360 359 359 358 359 360 361 361 362 362 363 363 362 363 362 361 362 362 361 361 361 360 360
317 318 320 322 323 325 328 330 330 329 329 329 328 329 328 328 328 329 329 330 330 331 333 335 339 340 340 341 341 341 341 341 341 342 343 343 344 345 345 345 345 345 345 345 345 345 345 344 344 344 344 345 345 345 347 348 349 352 354 356 358 360 360 360 360 360 360 359 359 358 359 359 360 360 361 362 362 362 362 362 361 361 361 361 361 360 360
315 316 317 319 321 324 327 329 329 329 330 330 329 329 328 329 329 329 329 328 329 329 330 331 334 338 339 339 340 340 341 341 342 342 343 343 344 344 344 344 344 344 344 344 344 344 344 344 344 344 344 344 343 344 345 346 347 348 349 351 353 354 355 355 355 355 356 357 357 357 358 358 359 359 360 361 361 361 362 362 362 362 362 362 361 361 361
315 316 317 321 326 328 329 329 329 329 330 330 330 330 329 329 329 329 329 329 328 328 327 328 330 332 334 337 338 339 340 341 342 342 343 343 343 344 344 343 343 344 344 343 343 343 343 343 343 344 343 343 343 343 343 344 345 346 347 348 348 348 349 350 349 349 349 349 350 351 353 353 354 354 356 357 358 359 359 360 360 360 361 361 361 361 361
316 316 317 321 325 326 326 328 329 329 330 331 330 330 330 329 329 328 328 328 329 327 326 325 326 327 329 332 336 339 339 339 339 341 342 342 343 343 344 343 344 344 344 343 344 343 343 343 343 343 343 343 343 343 342 342 343 343 344 344 344 343 344 344 343 345 346 344 344 344 344 344 344 345 347 349 351 353 354 356 356 357 357 357 358 358 359
313 314 315 318 320 321 322 324 327 328 330 331 330 329 328 327 327 327 326 327 327 327 326 325 325 326 327 329 333 335 335 335 336 338 339 340 341 342 343 343 344 344 344 344 344 344 344 344 343 344 344 343 344 344 343 342 342 342 343 342 342 341 341 340 340 342 343 343 342 342 341 340 340 341 342 344 344 343 343 345 348 349 350 351 352 354 355
314 315 315 317 319 319 320 322 325 327 329 331 330 328 326 325 324 324 325 325 325 326 327 326 326 327 328 329 330 331 331 331 333 335 336 337 339 340 341 341 342 343 343 343 343 344 344 343 343 344 344 344 344 344 343 343 342 342 342 342 342 341 340 339 339 340 341 341 342 342 342 341 340 340 341 341 342 340 338 336 336 338 339 340 341 344 347
315 315 315 316 318 318 319 322 325 327 328 329 329 327 325 323 322 322 323 324 325 325 326 326 326 327 328 328 329 329 328 328 330 332 333 334 335 337 338 339 340 341 342 342 343 343 343 344 344 344 344 344 344 344 344 344 343 343 342 342 341 341 340 339 339 339 340 340 342 342 342 341 341 341 340 339 339 340 339 338 337 336 335 334 334 335 337
314 315 317 318 319 320 322 325 326 327 327 327 327 326 325 323 322 321 322 323 324 325 326 326 326 326 327 327 328 328 329 329 330 331 332 332 332 334 336 337 338 339 340 341 342 342 343 344 344 344 344 344 345 345 345 344 343 343 342 341 341 340 340 339 339 339 340 340 340 341 341 341 341 341 340 339 338 339 339 339 339 339 337 336 334 333 333
316 317 318 319 320 322 325 326 326 326 327 327 326 326 326 325 324 324 323 323 323 323 325 326 326 326 327 327 328 329 330 330 330 331 332 333 333 333 335 336 336 337 337 338 340 341 342 343 343 343 343 343 344 345 345 345 344 343 342 341 341 340 340 340 340 340 340 340 339 339 339 339 339 339 339 339 339 339 339 340 339 337 335 332 328 327 327
318 319 321 322 323 325 327 326 326 326 327 327 326 325 326 326 326 326 325 325 324 325 326 326 326 326 327 328 329 329 329 329 330 330 331 333 334 334 335 335 336 336 336 336 337 338 340 341 342 342 342 342 344 345 345 345 344 343 343 342 341 340 341 341 340 340 340 340 339 338 337 338 339 339 339 339 338 339 340 340 338 335 331 327 322 321 321
320 322 324 324 325 326 326 326 326 327 327 327 326 325 325 326 327 327 327 326 326 328 328 328 327 327 328 328 329 329 329 330 331 331 332 333 333 334 335 335 335 335 335 336 336 337 337 337 338 339 341 342 343 344 345 345 344 343 343 342 340 339 339 339 340 341 341 341 340 339 338 339 339 339 339 339 339 339 339 339 337 334 331 327 322 321 322
324 324 324 324 325 325 326 326 326 327 327 327 326 326 325 325 326 327 328 328 328 329 329 328 328 328 329 329 330 331 331 331 332 332 332 332 332 333 334 334 334 334 334 335 335 336 336 336 336 337 339 340 341 343 344 344 343 343 343 342 341 339 338 338 339 340 340 340 340 339 339 339 339 339 339 338 338 337 337 336 335 333 332 330 326 326 326
324 324 324 325 325 325 325 326 326 326 327 327 328 328 327 327 327 328 328 328 328 328 328 328 329 329 330 330 331 331 331 331 332 332 332 332 332 333 333 333 334 334 334 334 334 335 336 337 337 337 338 339 340 341 342 342 343 344 343 342 342 341 340 339 340 340 340 340 340 340 339 339 339 339 339 338 338 337 336 334 332 329 329 330 329 329 328
325 326 326 326 326 326 327 327 327 327 327 327 328 328 329 328 328 328 328 328 328 328 328 329 329 329 330 330 330 330 331 331 331 331 331 332 332 332 332 332 333 333 333 334 334 335 336 337 337 338 338 338 339 339 340 341 341 342 342 342 342 342 341 340 340 341 341 341 341 340 340 339 339 339 338 338 338 338 336 334 331 328 326 325 328 330 330
326 327 327 327 327 328 328 327 328 328 328 328 327 327 327 328 328 328 328 329 329 329 329 329 329 329 329 329 329 330 330 330 330 330 330 330 331 331 332 332 332 332 332 333 333 334 335 337 337 337 337 337 338 339 339 339 339 339 340 341 341 341 341 341 341 341 341 341 341 340 340 339 339 338 337 337 337 337 336 334 332 330 328 326 327 329 330
326 326 326 327 327 327 327 327 327 328 328 328 328 328 328 328 328 329 329 329 329 329 329 328 328 328 328 328 328 328 328 328 328 328 329 328 329 330 331 331 332 332 332 332 332 333 334 335 336 336 337 337 338 339 338 338 339 338 338 339 339 340 340 340 341 340 340 340 341 341 340 340 338 337 336 336 337 336 335 334 332 330 329 328 329 330 330
325 325 326 326 326 327 327 327 327 327 327 328 328 328 328 328 328 328 328 328 328 328 328 328 327 327 327 327 327 327 326 326 326 327 327 327 328 328 329 329 330 330 331 330 331 332 333 333 333 334 335 336 337 337 337 336 338 338 338 338 338 338 338 338 339 339 339 339 340 340 339 339 338 337 336 336 336 336 334 333 331 329 328 327 329 331 331
324 324 325 325 325 325 325 326 326 326 327 327 327 327 326 327 327 327 327 327 327 327 326 326 326 325 326 326 326 326 325 325 325 326 326 326 326 326 327 327 327 328 328 328 329 330 331 331 331 332 333 333 334 335 334 334 335 336 336 336 336 335 336 336 336 336 337 337 338 338 339 339 339 339 338 337 337 336 334 332 330 328 327 327 328 329 329
322 323 323 324 324 324 325 325 325 326 325 325 325 325 325 325 325 325 325 325 324 324 324 324 324 325 324 325 325 325 325 325 325 325 325 325 325 325 325 325 326 326 326 327 328 329 330 329 330 331 332 332 332 332 332 332 333 333 333 333 333 333 333 333 334 334 334 334 334 336 336 337 338 338 338 337 337 335 334 332 330 328 326 326 326 327 328
320 321 322 322 322 322 323 323 324 325 325 325 325 325 325 324 323 323 323 323 323 323 323 323 324 324 324 324 324 324 324 324 324 325 325 324 324 324 324 324 325 325 325 326 326 327 328 328 328 329 329 330 330 330 329 328 330 331 331 331 332 332 332 332 332 332 333 333 333 333 334 334 334 334 334 334 335 334 333 332 330 329 327 326 325 325 326
318 318 319 319 319 319 320 320 321 321 320 321 321 322 322 322 322 322 322 322 322 323 323 323 323 323 323 323 322 321 321 321 322 322 323 323 323 323 322 323 323 324 324 324 324 324 325 325 325 326 326 326 327 327 326 326 327 329 329 329 329 330 329 330 330 330 331 331 331 332 332 332 332 332 331 331 332 333 332 330 329 327 327 325 324 324 324
318 318 318 318 318 318 318 318 318 318 317 317 318 318 319 319 319 320 320 321 321 321 321 322 322 321 321 321 320 319 319 319 319 320 320 321 322 321 321 321 321 322 323 322 322 322 322 321 322 323 323 323 323 323 323 324 325 326 326 326 327 326 326 326 327 327 328 329 329 330 330 331 331 331 331 331 330 330 329 328 327 326 325 325 325 324 323
318 318 317 317 317 317 317 317 317 317 317 317 317 317 317 317 317 317 317 317 317 318 318 318 318 318 318 318 318 318 318 318 318 318 319 319 320 320 320 320 321 321 321 321 320 320 319 319 319 320 320 320 319 319 319 320 321 322 322 322 323 322 322 323 323 324 325 327 327 327 328 328 329 330 330 330 330 328 326 325 324 324 324 324 324 324 324
318 317 316 317 317 317 317 317 317 316 316 316 316 316 316 316 316 316 316 316 315 315 315 315 315 315 315 316 316 316 317 317 318 319 318 318 318 319 319 319 320 320 320 319 319 318 318 318 318 317 316 316 315 315 316 316 317 317 317 318 318 318 318 319 319 320 322 324 325 325 326 326 327 328 328 328 328 328 326 324 323 322 322 322 323 323 323
317 316 316 317 317 316 316 316 315 315 315 315 314 314 314 315 314 315 315 315 315 314 314 314 313 313 313 313 314 314 315 315 317 318 318 317 317 317 318 318 318 318 318 318 317 317 316 317 316 315 313 312 313 313 314 314 315 315 315 315 315 315 315 316 316 317 318 319 321 322 323 323 324 325 326 326 326 326 326 324 323 321 321 322 322 322 323
316 316 316 316 316 315 315 314 314 313 313 312 312 312 312 312 312 313 313 314 314 313 313 313 313 312 312 312 311 312 312 312 314 315 316 316 315 316 316 316 316 315 316 315 315 315 314 314 312 312 311 311 312 312 312 313 313 313 313 313 313 313 313 314 314 314 315 315 316 317 318 319 320 321 321 322 323 324 323 322 322 321 322 321 321 321 323
314 315 315 315 315 315 314 313 312 312 311 311 311 310 310 310 310 310 311 311 311 311 311 311 311 311 310 310 310 310 310 310 310 311 313 314 314 314 314 314 313 313 313 312 313 313 312 310 308 308 309 310 311 311 312 312 312 312 312 312 312 312 312 312 312 312 312 312 313 313 314 314 315 316 316 316 317 318 319 320 320 320 321 321 321 320 321
312 313 313 314 314 314 313 312 311 311 311 310 310 309 309 309 309 308 308 308 308 308 308 309 309 309 309 309 309 309 309 309 309 309 310 311 312 312 311 311 311 311 311 311 310 310 309 307 305 304 305 307 309 310 310 310 310 310 310 310 310 310 310 310 311 311 310 310 311 311 311 311 311 311 311 311 312 312 313 315 316 318 319 319 320 320 320
311 311 312 312 313 313 313 313 312 311 311 310 310 310 309 309 309 308 308 308 307 307 307 307 308 308 308 309 309 309 309 309 309 308 308 309 310 311 310 309 308 307 308 309 309 307 304 302 302 303 304 306 307 308 308 308 308 309 308 308 308 308 308 308 309 309 309 309 309 309 309 308 308 307 307 307 307 308 309 310 311 313 315 317 318 318 319
310 311 311 311 311 312 313 313 313 312 311 311 310 310 310 309 309 309 309 308 308 308 307 307 307 307 307 307 308 308 308 308 308 308 307 307 307 308 308 307 306 305 306 308 308 307 304 302 301 302 304 306 306 306 306 306 306 306 307 307 306 306 306 306 307 307 307 308 308 308 307 307 306 306 305 304 304 304 306 306 307 309 311 313 314 316 316
310 310 310 310 310 311 311 312 312 312 311 311 311 311 310 309 309 309 309 308 308 308 307 306 306 306 306 306 306 307 307 307 306 306 306 306 305 305 305 305 305 304 304 305 306 307 307 305 303 304 305 305 305 305 305 305 305 305 305 305 305 304 304 304 304 305 306 306 306 306 306 305 305 304 304 303 302 302 303 303 304 305 307 308 309 310 311
310 310 310 310 310 310 310 310 310 310 310 310 310 310 309 309 308 308 307 307 308 307 307 306 306 306 305 305 305 305 306 306 305 305 304 305 304 304 304 304 303 303 303 304 305 305 306 306 306 305 305 304 304 304 304 304 304 304 304 304 303 303 303 303 303 304 304 304 305 305 305 305 304 303 303 302 301 301 301 301 301 302 303 304 304 304 305
309 309 310 310 310 309 309 309 309 310 310 309 309 308 308 307 307 307 306 306 306 306 306 306 306 305 305 304 304 304 304 304 304 304 303 303 303 303 303 303 303 303 303 303 304 304 304 305 305 305 304 304 304 303 303 303 303 303 303 303 303 302 302 301 301 301 301 301 302 302 303 303 303 303 302 301 300 300 300 300 300 300 301 301 302 302 302
Wind_Speed
4 6 8 6 4 6 7 8 11 11 9 11 14 15 10 10 10 13 6 8 11 11 9 9 6 4 6 7 6 5 4 4 4 3 4 6 6 6 6 7 9 10 11 11 12 12 13 16 19 22 24 27 31 31 30 30 32 31 31 34 36 33 32 36 39 43 43 38 35 35 34 35 38 36 34 34 35 36 37 37 35 34 34 35 39 41 42
5 7 8 6 3 5 8 9 12 13 13 12 11 12 13 13 14 16 9 9 12 12 12 14 10 6 5 5 4 4 5 5 4 3 4 5 6 6 7 7 8 9 11 11 11 11 11 13 17 21 24 27 30 30 29 31 32 31 32 38 40 33 33 42 45 42 41 38 35 34 35 37 41 39 35 36 37 37 38 38 35 35 35 35 35 37 38
5 6 7 6 6 7 10 11 12 12 12 13 12 11 13 13 13 16 14 9 10 8 7 9 7 3 2 4 6 6 6 4 2 2 4 6 6 7 7 6 5 7 9 10 10 11 12 14 18 21 25 28 29 28 28 30 32 32 33 38 40 38 40 44 42 38 40 40 36 36 38 39 40 40 38 36 36 37 37 37 36 36 37 35 33 32 33
5 4 5 9 12 12 12 13 13 14 13 13 11 9 10 11 11 13 14 11 8 4 4 7 6 3 5 8 8 7 5 4 3 4 6 6 7 7 5 5 5 7 9 10 12 13 14 16 18 23 25 25 26 27 29 31 32 31 32 36 40 41 40 39 37 38 39 38 36 37 38 38 39 39 38 36 35 36 36 36 36 35 35 35 34 32 30
4 5 6 9 11 10 10 9 9 12 14 14 13 11 12 13 11 11 11 9 7 4 6 9 9 8 10 10 9 8 7 6 6 7 8 7 6 6 5 5 7 8 8 9 11 13 14 16 21 26 25 23 25 31 33 33 33 31 33 37 40 39 37 36 38 41 38 36 36 37 38 38 36 36 36 36 35 35 34 35 35 33 34 34 34 32 31
4 6 7 9 8 7 5 1 1 6 10 11 14 15 15 14 13 10 9 9 9 8 8 10 12 13 11 9 8 7 6 6 7 8 8 7 6 5 6 6 7 7 8 9 10 12 15 19 22 24 25 26 29 32 30 30 32 33 34 37 38 37 37 38 39 39 37 36 36 35 36 35 33 34 35 35 34 33 33 33 33 33 35 34 33 33 33
5 5 5 7 8 5 5 3 1 4 6 6 10 14 14 15 16 15 13 12 11 9 8 11 14 13 7 3 2 3 5 5 6 7 6 5 5 5 5 5 6 6 7 9 10 11 15 18 17 19 24 27 27 26 27 29 31 32 33 34 34 31 31 33 34 34 35 34 32 31 31 32 32 33 33 33 33 32 32 32 33 35 35 33 34 35 34
4 3 5 8 3 8 15 8 3 1 2 2 5 8 9 8 9 12 14 14 13 11 10 10 10 6 1 1 0 3 4 4 5 6 5 3 3 4 4 5 6 6 7 9 10 11 12 14 16 18 22 23 20 22 26 30 31 31 31 31 29 26 26 28 29 30 31 30 29 28 29 29 31 32 32 33 33 31 31 32 34 34 33 33 35 35 34
5 5 8 8 6 12 14 5 4 2 2 3 4 3 3 3 5 6 8 10 13 13 10 8 5 2 2 4 4 5 5 5 5 5 3 2 3 4 5 6 7 8 8 9 10 10 10 13 15 17 19 19 19 20 22 26 29 29 27 25 26 27 27 27 28 30 31 31 29 28 28 30 32 33 33 34 33 32 32 33 33 33 33 34 36 35 35
6 6 8 8 8 9 5 3 2 3 3 2 1 2 3 1 5 8 8 8 11 11 7 5 4 4 4 7 6 6 8 6 4 3 1 2 2 3 5 6 7 8 7 6 7 7 9 11 14 17 18 19 20 20 19 22 24 24 23 25 26 27 26 26 30 35 37 36 33 30 30 32 33 33 33 33 33 34 35 34 33 34 34 35 36 35 35
7 8 9 8 8 5 3 5 1 4 3 3 4 3 3 1 7 10 9 9 11 10 8 4 4 6 7 8 5 7 9 6 3 2 0 1 2 3 4 5 6 8 7 2 2 3 4 6 9 16 20 21 19 18 18 20 20 21 23 24 23 23 24 28 35 38 37 37 35 32 32 34 33 32 32 32 32 33 34 33 32 32 33 34 35 36 36
8 9 8 7 7 4 1 2 1 4 1 5 5 5 2 3 9 11 10 11 11 10 9 6 7 9 8 6 3 8 10 6 4 3 1 1 2 3 4 5 6 7 7 7 8 7 5 2 3 11 17 19 17 15 15 17 18 19 19 19 20 23 26 29 33 33 30 32 34 33 33 33 32 31 32 31 30 31 32 32 31 31 32 32 33 35 36
10 10 9 8 6 4 3 3 0 2 1 5 5 5 1 4 10 10 10 13 12 10 10 8 7 5 3 2 4 10 10 7 6 3 1 1 2 3 4 6 7 8 9 10 10 9 7 4 3 7 12 13 13 12 12 14 15 15 16 21 25 28 29 28 28 27 27 31 34 34 31 29 29 29 30 29 29 31 33 33 33 33 34 34 33 33 33
8 9 8 8 6 4 5 4 1 1 3 4 3 2 2 6 9 9 10 11 11 11 11 10 7 3 3 3 5 9 9 7 6 4 2 2 2 3 4 6 7 8 10 12 13 12 11 8 5 6 9 9 8 9 10 9 9 8 12 18 22 24 26 26 25 26 27 29 32 31 27 27 28 28 29 29 29 30 31 31 33 35 36 35 34 32 30
7 7 9 8 6 2 6 6 3 4 4 2 2 2 3 4 7 9 9 8 9 10 11 9 5 1 2 2 4 6 7 6 6 4 3 3 2 4 5 6 8 10 11 12 14 13 12 12 9 6 7 8 7 8 7 5 4 5 8 13 17 19 23 23 22 24 26 27 29 28 25 27 30 29 29 29 29 29 30 29 31 34 35 34 34 32 30
6 8 7 4 4 3 3 5 4 4 2 1 1 3 2 2 4 7 7 7 8 10 10 6 3 3 3 3 4 4 5 5 5 4 4 3 4 5 5 6 9 11 11 12 13 14 14 14 13 11 9 9 9 8 6 4 2 3 5 10 15 18 20 21 22 23 23 25 27 27 25 27 29 28 27 28 28 29 30 31 31 32 32 32 32 32 30
5 7 7 6 9 10 8 6 2 5 5 3 4 3 1 3 3 5 5 7 8 9 8 4 2 3 3 4 4 4 4 5 5 5 4 4 5 6 7 8 10 11 12 13 14 14 15 15 15 14 13 12 12 10 7 4 3 3 1 4 10 14 16 18 20 21 21 22 24 24 24 25 26 27 26 25 26 28 30 31 33 33 31 30 29 30 31
7 9 9 10 10 10 11 8 2 5 6 4 4 2 1 4 4 5 5 5 6 8 7 3 3 3 4 6 6 5 4 4 4 5 5 5 6 7 7 8 10 12 13 13 14 15 14 14 14 14 14 14 13 10 7 6 6 5 4 2 2 7 10 12 15 17 18 19 20 21 23 24 25 26 25 25 26 28 29 31 33 32 29 26 27 30 33
6 5 6 7 7 8 9 8 4 3 4 5 4 3 4 6 5 5 5 4 5 6 7 3 4 4 4 7 7 6 5 4 4 5 5 6 7 7 7 8 9 11 12 11 12 14 13 13 13 13 13 14 12 10 9 9 8 6 6 6 4 1 2 5 8 10 12 13 14 16 19 21 22 23 24 25 26 26 29 31 30 29 28 26 26 29 32
5 7 11 10 9 11 12 10 6 3 5 5 5 5 8 9 7 5 5 6 6 6 6 5 5 5 4 6 8 7 6 5 5 5 6 6 7 8 8 8 9 11 11 10 11 12 12 12 13 13 14 14 12 11 11 10 9 9 8 8 7 6 4 2 1 3 6 8 9 12 15 18 21 22 23 25 28 29 32 32 30 29 29 30 31 32 33
7 11 13 9 7 10 13 13 9 6 6 6 7 8 11 13 9 6 7 8 7 7 6 5 6 6 5 5 7 7 6 6 6 6 7 7 8 10 11 11 12 13 12 12 12 12 12 12 13 13 14 14 13 13 12 11 11 11 10 10 9 8 7 6 5 4 2 1 3 6 9 11 14 17 19 21 25 28 30 32 33 33 33 33 36 36 35
8 10 8 4 3 6 9 11 10 10 8 6 8 10 12 14 9 6 7 8 8 8 8 7 7 7 6 5 5 6 6 6 6 7 8 8 9 11 13 14 15 16 16 15 15 15 14 15 15 15 15 15 15 14 13 12 12 12 11 11 10 9 9 7 6 6 5 5 5 4 5 6 9 13 16 18 20 23 25 26 30 33 35 36 39 37 34
11 12 9 5 4 6 9 10 10 11 9 5 11 12 12 13 9 6 7 8 8 8 8 8 8 8 7 7 6 7 8 7 7 8 8 8 9 12 14 15 15 17 18 18 18 18 18 19 20 19 19 18 16 15 14 13 13 13 13 12 11 10 9 8 7 7 7 6 7 6 6 7 9 11 13 16 19 22 25 27 29 31 33 36 40 40 37
16 15 13 9 6 8 13 14 13 13 7 7 13 12 12 13 9 7 8 8 8 7 6 7 9 8 7 6 6 7 8 9 9 9 10 10 11 12 15 16 17 17 18 18 18 19 19 19 21 20 20 19 18 16 14 13 12 13 14 14 13 11 9 8 8 7 6 6 6 6 7 7 7 7 8 11 15 18 21 23 27 30 33 37 41 44 46
15 14 13 11 9 11 13 14 16 16 7 10 13 10 12 13 9 8 9 9 8 8 6 6 7 8 8 6 6 7 8 9 9 10 10 11 13 14 16 17 16 16 16 16 17 17 17 18 19 18 18 18 18 17 15 14 13 14 15 15 14 12 10 9 8 7 6 6 5 5 4 5 4 4 4 5 8 13 17 20 22 24 28 32 36 42 47
16 16 15 14 12 11 11 11 14 16 7 12 14 11 13 14 11 9 10 9 9 10 8 7 7 9 9 6 4 6 8 8 9 9 9 10 12 14 15 16 16 15 15 15 15 16 16 17 17 16 16 16 16 16 15 15 15 15 15 15 14 13 12 10 8 8 7 6 5 4 4 4 3 3 4 5 5 7 10 15 19 22 27 32 34 37 42
17 16 14 13 12 12 11 12 13 11 6 12 15 13 12 12 9 8 9 10 12 12 11 10 9 8 7 5 4 5 9 10 10 10 9 9 11 12 14 16 17 17 17 17 16 15 15 15 15 15 14 14 14 14 14 14 14 15 14 14 13 13 12 11 9 8 7 6 5 5 5 5 4 4 4 6 7 7 7 10 13 18 25 32 35 38 42
15 13 12 13 13 11 10 11 10 6 6 11 15 13 9 8 9 9 9 11 12 11 11 13 12 8 6 6 5 4 10 11 11 10 9 10 11 12 13 14 15 16 16 17 17 16 16 15 15 15 14 12 12 13 13 13 13 13 13 12 12 11 11 10 9 7 7 7 6 5 5 5 4 5 5 5 6 7 9 11 13 16 20 27 34 40 44
14 11 10 13 11 7 7 9 9 9 9 11 14 13 8 7 10 11 10 9 9 8 8 9 10 8 6 7 6 6 10 11 11 11 10 11 11 12 13 13 14 16 17 17 17 17 17 17 17 17 15 12 11 12 13 12 12 11 11 10 10 10 10 9 7 6 6 5 5 5 4 4 5 5 6 7 8 8 11 14 15 15 18 24 30 32 29
8 5 5 7 8 9 10 11 11 11 10 10 12 13 10 8 8 10 11 9 6 6 6 6 6 7 7 7 8 9 11 11 10 11 12 13 15 15 15 15 14 15 16 17 17 16 16 17 17 17 16 13 11 11 11 12 11 10 9 9 8 8 8 7 6 6 5 4 5 4 4 4 5 5 6 8 10 10 13 16 16 16 18 20 21 19 18
7 7 7 8 9 9 9 8 8 8 7 9 11 13 13 11 10 10 9 8 6 5 5 7 7 6 6 6 8 10 12 12 12 13 15 17 18 19 20 20 17 14 14 16 17 16 15 15 15 15 15 14 12 11 11 11 11 10 9 8 8 7 7 6 5 5 5 5 5 5 4 4 4 4 5 7 9 10 12 13 15 16 18 19 19 24 29
11 11 10 9 8 7 6 6 8 7 7 8 9 9 10 11 11 10 8 7 6 6 6 7 7 5 5 7 9 11 13 13 14 14 16 18 19 21 22 22 21 19 17 18 18 18 17 15 14 13 14 15 15 14 12 11 10 10 9 8 8 7 6 5 5 4 4 4 3 4 4 4 5 5 5 6 7 8 9 10 11 15 19 20 22 30 36
13 13 12 10 9 9 8 7 8 8 7 7 6 5 6 7 8 8 8 8 7 7 6 6 7 7 7 8 10 11 12 12 13 14 15 17 19 20 21 21 21 20 19 18 20 22 21 17 14 13 13 14 15 15 14 12 11 10 9 8 7 6 5 5 5 4 4 4 3 3 4 4 5 5 5 5 6 7 7 8 9 12 16 19 21 24 30
11 11 10 9 8 9 9 8 7 7 7 6 6 6 7 8 8 9 9 9 9 9 8 8 9 9 10 11 11 12 12 11 11 12 13 16 17 18 17 17 18 19 19 21 23 23 21 18 16 14 13 14 15 15 14 12 10 10 10 8 8 7 6 6 6 5 5 5 5 4 4 4 4 4 5 5 6 6 6 6 7 9 13 17 20 21 25
12 11 11 9 9 9 9 9 8 8 8 8 8 8 8 9 10 11 11 11 11 12 12 11 12 13 13 13 12 12 12 12 12 13 15 17 17 17 16 16 16 16 18 22 24 22 19 19 18 15 14 15 16 15 15 13 10 10 10 9 9 9 9 9 8 7 6 6 6 6 5 5 4 3 4 4 5 5 6 5 5 7 10 13 16 18 19
13 12 10 9 9 10 10 9 9 9 9 9 10 10 9 10 11 12 12 13 13 13 14 14 14 15 14 14 13 12 13 14 15 16 17 18 18 19 19 18 17 16 17 20 22 20 18 19 20 18 17 17 17 17 17 15 11 10 10 10 10 10 10 10 10 10 9 9 9 7 6 5 4 4 4 3 3 3 4 4 4 5 6 8 12 14 15
12 12 10 9 9 10 10 8 8 9 9 9 10 10 10 10 11 12 14 15 15 15 15 14 14 14 15 16 17 17 17 18 19 19 19 19 20 22 22 20 19 18 16 16 18 19 19 21 22 21 19 19 18 19 19 17 14 12 12 12 11 12 12 11 12 12 12 12 11 9 8 7 7 6 5 4 3 2 2 3 4 4 4 5 7 10 11
14 13 11 10 10 10 11 11 12 11 11 11 11 12 13 13 14 16 18 18 18 19 18 16 15 15 17 19 19 19 19 19 20 20 19 19 21 23 23 21 20 18 16 15 18 20 22 22 22 20 20 20 18 19 20 19 16 15 15 14 13 13 13 13 13 13 13 12 12 11 11 10 9 8 8 7 5 4 2 2 3 3 3 3 4 6 8
14 13 12 11 11 10 11 13 14 14 13 12 10 11 15 19 20 21 20 19 19 20 20 18 17 16 16 16 16 16 17 18 18 18 17 17 19 21 21 22 22 21 19 19 21 22 23 23 21 19 19 19 18 18 21 21 18 16 16 16 15 15 15 14 14 13 13 13 12 12 12 11 10 10 10 9 7 6 5 4 3 2 2 2 3 4 5
14 14 13 13 13 12 12 12 13 17 20 19 15 14 17 21 23 22 20 19 19 20 20 19 17 15 15 15 14 15 17 18 18 18 18 18 19 19 18 20 24 25 23 22 22 23 24 24 22 18 18 19 17 18 21 23 20 17 17 17 17 16 16 16 15 15 14 14 14 13 13 12 11 10 10 8 8 7 6 4 3 2 1 2 3 4 5
14 14 15 14 13 13 13 14 16 20 24 24 22 21 23 24 23 20 18 18 20 20 20 18 16 15 14 15 16 17 18 19 20 22 22 22 20 17 14 17 24 26 24 23 23 23 23 24 23 20 19 19 18 19 22 23 20 17 17 18 18 17 17 16 16 15 15 15 15 14 14 13 12 11 10 8 7 7 6 4 3 1 1 3 4 7 9
13 14 14 13 11 12 15 17 17 18 20 21 23 25 26 26 24 21 19 19 20 21 21 21 20 19 17 16 17 18 18 17 19 24 27 28 24 18 14 16 23 25 24 24 24 24 23 24 24 22 21 20 21 24 26 24 20 18 18 18 18 18 17 17 16 15 16 16 16 16 16 15 13 12 12 10 7 6 5 4 3 3 2 1 4 8 13
15 15 13 11 11 14 17 18 17 16 17 19 21 23 25 25 24 23 21 20 19 20 20 21 22 21 19 18 17 17 16 16 17 20 24 27 27 24 20 18 21 24 24 23 23 24 24 23 23 26 29 30 30 32 31 26 22 21 21 21 20 20 19 18 17 16 16 16 16 16 16 16 15 14 13 11 9 7 5 3 1 1 1 2 3 8 13
17 17 14 12 13 15 16 17 16 15 15 17 19 21 23 24 23 22 20 20 20 19 19 19 20 20 19 19 17 15 14 15 16 16 17 19 22 23 23 21 20 23 24 23 22 23 23 22 23 28 34 37 38 38 34 27 24 23 23 22 22 21 20 19 19 18 17 16 15 15 15 15 16 16 15 14 13 11 9 7 5 4 4 4 4 7 11
18 19 18 17 17 17 16 15 15 15 16 19 21 22 22 22 23 22 21 20 20 20 19 19 18 18 17 17 17 17 17 18 18 17 14 13 13 16 19 20 21 22 24 23 22 22 23 25 28 31 34 36 37 37 32 27 24 24 23 23 23 22 22 21 21 20 19 18 17 16 16 16 16 17 18 18 17 15 12 11 9 6 4 4 5 8 11
18 19 20 20 19 17 15 16 18 20 22 22 20 19 19 21 23 23 22 22 21 20 20 20 20 19 19 18 17 17 19 22 24 23 19 15 14 15 18 20 21 22 24 24 22 21 22 27 32 35 35 34 32 29 26 25 25 24 24 24 23 23 23 23 22 22 21 20 19 19 19 19 19 19 19 20 21 19 17 15 15 12 9 6 6 6 7
16 16 16 16 16 16 16 18 21 22 19 15 12 12 16 20 21 20 21 22 22 21 21 21 20 20 21 20 18 15 15 17 20 22 20 17 16 17 19 20 21 22 23 24 24 23 25 28 31 34 35 33 29 25 23 23 23 23 23 24 24 23 23 23 23 24 24 23 21 21 22 23 23 24 24 24 24 24 22 21 21 20 17 15 13 11 9
15 14 15 16 17 16 16 18 19 16 13 12 11 12 14 17 19 18 18 19 20 21 21 21 20 20 20 19 18 17 15 13 12 13 15 16 15 16 18 21 23 23 22 21 22 25 28 30 31 32 32 30 27 24 23 23 23 22 22 23 23 23 24 23 23 23 24 25 25 24 23 23 24 25 27 28 30 30 29 28 27 25 24 21 19 16 14
15 14 16 19 18 16 14 14 13 11 11 12 13 12 12 14 16 16 15 15 17 17 18 18 18 18 17 17 17 17 17 16 13 12 13 16 17 17 17 19 22 23 21 18 18 21 25 29 31 31 28 25 23 22 23 23 23 23 22 22 22 22 23 23 22 22 23 24 25 25 24 24 24 25 26 30 33 34 34 33 31 28 26 24 22 19 17
15 15 15 15 15 13 13 12 10 9 10 11 11 10 12 13 14 13 12 12 13 13 14 15 15 15 14 15 15 15 15 16 16 15 16 17 18 19 19 19 21 22 22 20 17 17 19 23 25 26 24 23 22 22 21 21 22 22 22 22 22 23 23 23 23 23 23 23 24 24 24 25 27 27 29 31 33 34 33 34 34 32 29 27 26 24 21
15 14 12 12 12 14 14 14 12 11 11 11 10 11 13 13 12 11 11 11 10 10 12 13 14 13 13 13 14 15 15 16 16 17 18 17 17 18 19 20 20 21 22 20 18 17 17 18 20 21 21 20 21 21 21 21 21 21 22 22 23 24 24 24 24 24 23 23 23 23 23 24 25 26 27 30 33 34 34 33 34 33 32 30 28 26 24
15 14 12 12 12 14 15 15 14 14 13 12 12 12 12 12 11 12 12 12 11 10 10 11 12 13 14 14 14 15 16 16 16 17 18 17 17 17 17 18 18 19 18 17 17 17 17 17 18 19 19 19 19 19 20 21 21 21 21 21 21 23 25 26 27 27 27 26 25 23 23 23 23 23 23 25 29 31 33 33 34 33 33 32 30 29 27
Wind_Direction
335 305 296 290 274 259 259 267 269 273 275 255 238 233 212 170 206 242 209 165 222 234 228 240 238 228 248 253 261 274 284 272 244 224 237 246 248 247 230 220 213 208 211 209 207 206 199 195 195 195 197 199 199 200 198 195 197 196 193 192 195 196 194 199 204 206 205 204 202 201 201 202 205 206 205 208 210 212 215 215 214 215 217 219 223 225 227
316 305 299 297 289 273 270 268 265 266 269 265 259 252 240 222 229 245 226 186 218 230 226 232 229 221 246 267 291 279 257 251 231 206 239 251 252 252 242 233 222 216 218 215 210 208 199 197 198 196 198 199 199 200 197 195 197 196 193 196 199 197 199 205 208 207 206 204 201 201 202 205 208 208 207 209 211 212 216 217 215 215 217 218 219 221 223
301 305 307 303 306 301 287 274 262 259 260 259 254 249 249 243 239 245 242 224 222 224 229 238 228 191 225 251 258 255 246 251 249 226 248 254 256 259 260 262 251 232 228 222 213 207 202 202 201 199 200 200 199 199 197 195 197 196 194 197 199 200 206 208 206 205 206 206 204 204 206 208 209 209 209 210 211 213 215 216 216 217 218 218 217 218 219
285 303 320 317 319 310 284 267 258 251 248 250 248 239 240 239 235 242 245 243 242 222 227 251 244 215 233 239 244 250 248 249 249 244 248 248 250 255 265 277 269 247 238 227 216 212 209 204 201 202 202 198 196 198 196 195 196 193 192 195 199 203 207 205 202 203 204 204 203 205 206 207 207 208 209 210 211 212 213 214 215 216 217 219 219 219 218
286 303 317 323 322 302 270 257 254 250 248 250 251 244 239 236 233 237 238 244 259 237 220 241 243 231 235 239 239 241 239 235 233 238 245 245 246 253 258 262 258 251 246 234 224 220 213 205 203 203 200 196 197 200 199 197 195 192 193 197 200 203 203 201 202 203 201 200 202 204 205 205 205 206 207 209 211 211 211 213 214 215 217 219 220 220 218
281 300 316 314 289 257 253 263 251 264 262 257 253 247 241 235 233 244 256 255 255 238 219 228 236 234 236 239 238 231 228 233 233 233 237 240 246 254 253 256 258 253 250 245 237 229 222 216 210 202 199 200 203 203 201 197 195 196 199 201 202 203 202 200 201 201 199 200 202 203 203 202 201 203 206 209 211 211 211 213 214 216 218 218 220 222 221
276 298 305 273 242 245 306 351 80 270 264 257 264 259 248 239 232 237 246 246 247 245 225 222 234 240 243 255 250 219 213 229 238 239 240 238 245 253 253 260 266 260 258 254 247 240 231 222 209 197 198 201 200 199 197 195 195 199 201 202 205 204 201 200 200 198 199 200 201 200 200 199 200 204 206 208 209 210 211 212 216 219 218 218 221 223 223
256 262 239 235 251 326 315 318 56 11 267 322 299 261 242 248 248 242 239 235 238 241 228 224 237 244 193 71 226 218 222 229 237 247 252 247 259 272 276 279 278 274 271 263 255 247 231 215 203 197 198 197 190 188 192 193 195 198 199 201 203 202 199 199 199 198 199 200 200 200 198 198 202 204 206 208 208 207 209 213 217 219 217 218 221 223 223
225 236 246 253 304 314 298 297 55 18 295 346 333 262 252 324 341 312 277 252 246 244 232 224 227 194 187 236 227 207 215 227 234 248 269 289 292 298 304 302 295 287 280 268 259 248 220 202 200 195 191 187 183 181 185 190 194 195 196 199 200 199 198 196 195 197 200 200 200 200 198 200 203 205 206 208 207 205 207 210 213 216 217 219 222 222 222
211 232 253 259 269 271 245 151 74 319 289 270 227 234 257 349 23 360 332 297 279 274 264 234 194 164 217 248 233 190 191 203 212 225 258 297 307 322 324 317 313 311 301 272 247 228 202 194 195 192 187 183 181 180 181 187 190 192 197 201 200 198 196 193 196 201 204 203 202 200 201 203 205 205 206 208 206 206 208 211 213 215 217 219 221 221 221
214 219 235 240 243 241 149 130 201 319 312 191 192 237 240 47 10 349 331 316 305 301 301 274 190 180 220 246 231 171 166 170 171 174 187 3 6 3 352 342 340 342 344 0 126 142 160 175 188 191 187 183 181 182 182 184 187 193 201 203 199 195 194 197 203 206 204 203 202 202 204 206 206 205 206 207 207 207 210 213 214 214 214 215 217 218 218
228 224 236 240 238 246 123 135 271 331 348 167 204 255 238 28 348 332 325 319 309 304 307 283 217 210 230 250 200 138 138 138 133 133 108 36 33 23 17 12 11 14 22 48 68 64 55 59 181 186 183 180 181 182 179 182 191 199 203 200 196 197 199 202 207 207 202 201 203 205 207 208 206 207 207 208 208 209 211 214 216 217 217 217 218 217 216
229 228 239 248 244 235 211 195 234 10 151 184 226 253 245 336 327 329 330 320 309 303 299 272 234 237 289 2 97 119 125 129 128 129 129 74 45 25 24 26 39 54 55 58 64 57 43 44 133 170 176 179 180 176 173 185 197 202 203 203 204 205 205 204 205 205 204 204 206 208 210 208 207 209 211 210 210 210 212 214 216 218 219 221 222 223 222
225 229 239 254 261 225 170 167 139 144 204 229 253 270 286 305 320 335 331 317 315 311 294 270 256 289 15 51 96 113 120 127 131 134 133 113 78 52 47 41 57 77 71 64 63 54 43 44 74 143 165 167 164 165 169 182 196 202 203 206 207 207 206 205 206 206 206 207 208 209 209 207 206 209 211 211 212 213 214 215 218 220 222 224 226 227 228
220 233 233 239 262 218 148 157 178 194 215 263 345 312 296 318 334 335 327 317 322 320 301 277 256 223 96 96 103 112 121 128 128 130 133 129 96 69 63 54 65 79 75 66 59 52 46 43 47 86 133 135 132 141 141 140 165 191 204 207 207 207 208 208 208 208 209 210 210 210 208 207 207 210 211 211 212 213 213 214 219 223 224 226 228 230 230
214 223 218 227 309 322 199 205 206 182 176 113 146 256 286 26 359 335 327 321 325 328 314 287 220 159 134 118 108 116 128 128 127 129 129 124 104 81 70 66 71 76 76 70 61 53 51 50 48 56 79 96 100 100 88 79 123 166 198 208 206 207 210 212 213 213 214 213 213 212 211 210 211 214 214 212 214 215 215 216 220 225 226 225 225 225 227
250 254 260 293 317 315 293 273 213 144 151 163 179 217 271 51 21 346 326 318 330 336 322 293 171 140 127 123 119 124 128 123 124 126 115 99 94 83 76 78 80 81 80 76 68 58 51 51 53 55 61 75 79 72 60 53 68 81 115 206 208 209 212 214 216 217 218 217 216 215 215 213 214 217 217 216 218 220 221 222 224 228 229 227 223 223 224
306 291 269 264 276 288 290 286 245 145 153 164 170 177 100 61 30 355 327 325 345 344 325 304 139 130 124 120 114 109 113 112 109 109 98 86 82 76 75 80 85 88 88 83 78 71 59 52 54 54 55 62 63 56 48 47 50 56 61 76 192 216 220 221 221 221 222 222 221 220 220 218 219 221 221 220 222 223 223 225 227 229 229 227 224 226 227
307 294 265 256 266 276 275 268 248 176 165 160 156 144 96 67 35 2 350 358 14 6 348 7 102 118 120 119 113 102 94 90 91 94 89 83 79 72 71 78 84 89 90 84 80 79 71 63 62 60 59 59 57 52 46 41 42 48 55 61 67 79 237 239 237 233 231 231 230 227 224 223 224 226 225 225 227 227 227 228 229 228 228 227 226 229 232
262 270 279 292 302 293 277 261 249 212 175 154 130 110 88 68 41 14 18 25 35 36 14 17 66 89 100 111 113 107 97 88 85 86 84 82 80 77 74 75 80 83 81 79 78 75 71 69 68 67 66 63 61 59 56 51 51 53 53 56 61 59 54 44 307 256 247 245 244 241 236 233 232 232 231 231 232 232 230 229 228 228 228 228 228 230 233
279 274 276 283 290 281 267 253 247 233 195 154 117 95 80 66 41 16 32 35 33 36 20 10 45 63 61 78 98 104 99 89 83 82 83 81 79 79 78 77 79 83 83 84 82 78 74 74 72 69 68 66 62 59 58 58 60 61 61 63 63 61 59 57 54 48 21 325 285 264 257 255 251 247 243 241 242 243 240 234 231 231 231 231 233 232 231
269 259 258 256 259 270 261 241 228 226 215 155 99 79 73 68 47 18 38 46 37 32 20 8 31 46 30 25 57 79 79 74 75 80 84 85 83 83 86 87 87 88 89 88 85 81 77 74 72 70 68 66 61 56 56 60 64 67 72 73 68 64 60 56 55 57 57 48 29 358 320 309 298 282 270 264 262 264 262 254 246 242 239 238 239 238 234
257 258 266 275 283 296 287 263 235 229 226 129 87 76 75 74 56 28 41 50 44 35 19 9 24 34 17 10 37 63 64 58 55 56 60 70 78 80 82 84 82 80 79 77 74 71 68 66 65 64 62 60 56 52 53 59 66 73 79 80 75 70 65 60 57 57 56 49 37 23 4 347 332 313 299 289 281 276 273 271 268 265 259 254 251 247 243
262 267 271 274 275 276 280 277 265 252 235 113 94 88 85 81 65 45 47 47 46 45 24 10 22 26 17 15 32 53 58 55 52 50 47 49 57 64 66 66 66 64 63 63 62 62 61 60 59 58 56 53 49 46 46 50 58 68 73 75 74 71 68 66 63 59 56 49 38 27 16 9 359 342 326 311 302 299 294 286 280 276 272 269 263 258 253
257 263 265 268 266 262 271 281 273 259 233 107 99 95 88 85 75 62 58 50 46 49 34 15 19 25 25 25 31 46 55 51 48 54 56 53 54 56 56 56 57 58 57 57 58 60 59 58 57 55 53 49 46 44 43 45 51 58 61 64 65 62 60 61 60 58 56 44 29 21 18 20 16 359 345 326 314 318 325 324 315 302 291 284 275 266 258
258 262 263 266 265 261 267 273 260 246 206 109 103 101 92 89 84 73 68 58 46 43 37 23 18 22 21 14 21 54 62 53 42 45 53 56 56 57 58 59 61 64 64 63 62 63 64 63 61 57 52 48 43 43 45 46 50 54 56 59 60 57 58 63 64 59 55 42 31 30 32 31 30 21 9 2 343 326 328 333 332 323 314 307 295 280 266
255 251 251 259 264 259 252 245 236 225 174 113 105 103 100 102 101 89 79 69 54 40 30 21 18 23 19 355 351 57 68 60 49 45 44 50 55 58 61 65 66 68 69 67 65 66 67 66 63 59 53 48 43 43 46 48 51 52 53 55 55 53 54 58 60 57 51 44 38 37 35 28 20 10 4 359 355 349 337 329 326 321 316 312 304 291 276
249 239 227 231 245 250 240 226 215 190 132 109 106 107 115 126 117 97 81 75 69 55 34 19 13 20 20 344 330 44 64 58 54 53 47 48 56 58 59 62 63 63 65 64 61 62 62 61 59 55 49 44 43 43 45 50 53 52 49 48 47 45 43 45 47 46 45 42 35 28 27 22 6 355 354 347 337 338 341 339 338 331 319 312 306 296 283
251 241 216 208 215 213 191 182 164 131 106 102 108 116 130 136 117 100 86 79 79 78 64 35 13 8 4 342 340 30 57 56 57 61 55 49 51 51 51 56 59 58 55 51 47 48 51 51 51 48 41 37 39 42 44 50 54 56 54 51 47 42 35 32 32 33 33 33 27 19 19 19 8 0 354 343 335 343 353 355 355 352 343 332 322 312 303
233 216 173 155 149 152 161 158 139 123 113 112 118 122 120 108 96 95 96 93 83 76 78 67 35 14 7 3 12 41 60 64 62 62 58 53 50 48 46 50 53 51 46 40 34 33 37 40 42 39 35 33 37 42 46 50 53 56 58 58 54 46 37 28 23 18 12 8 10 17 29 32 24 18 3 350 348 358 5 1 357 4 11 1 343 337 350
146 141 131 122 122 141 162 150 122 113 115 119 123 126 122 113 103 98 99 98 90 78 71 73 67 49 34 35 43 55 66 68 63 60 58 55 54 53 51 52 54 51 45 40 34 29 28 31 33 32 30 32 37 42 47 50 51 52 52 51 48 42 38 36 31 16 2 355 358 7 16 19 18 22 18 8 5 15 22 12 358 5 21 23 11 8 12
125 125 122 116 115 133 150 136 119 117 117 118 121 123 124 124 118 113 107 99 96 95 84 79 83 79 64 62 63 63 64 62 59 59 57 54 54 55 54 55 57 55 49 45 41 36 32 29 27 25 28 33 38 40 42 46 48 48 47 44 39 34 34 38 38 23 7 359 358 359 359 358 4 13 18 17 13 19 34 36 17 9 18 29 34 34 34
132 130 131 130 131 138 140 130 121 118 113 113 114 109 108 111 109 108 110 107 103 103 95 89 91 87 77 71 68 67 68 67 63 61 57 52 54 57 58 59 59 56 51 47 43 40 35 30 26 26 30 36 39 39 39 41 43 43 42 39 36 33 28 25 25 22 13 6 8 10 5 357 2 6 5 7 13 16 30 49 48 35 28 30 41 58 69
126 124 127 129 130 133 132 126 120 115 109 106 106 106 109 110 108 107 111 112 108 104 99 98 98 93 86 80 73 71 72 70 65 61 57 54 56 59 59 59 58 55 51 47 44 41 35 29 28 32 36 39 42 40 37 37 40 39 37 34 29 26 23 20 20 19 15 8 5 8 11 9 10 12 3 357 8 20 27 37 51 61 58 48 48 65 87
103 100 102 108 110 115 121 121 117 116 115 113 111 110 111 112 112 110 108 107 106 103 100 97 95 90 85 80 74 70 68 66 65 64 61 59 57 55 54 53 51 49 49 46 42 38 33 30 31 36 39 41 42 39 34 33 36 36 33 28 22 19 19 21 21 19 17 13 5 1 5 9 12 20 18 3 3 22 35 36 37 51 60 62 63 70 82
98 98 99 103 103 104 108 109 111 115 118 118 115 112 109 108 107 106 104 100 97 94 90 87 84 82 80 77 75 73 70 70 69 65 60 57 56 54 54 51 46 44 47 44 35 29 28 29 32 36 38 38 38 35 32 32 34 34 32 28 23 19 17 18 20 20 18 15 11 4 359 1 5 15 26 22 8 18 38 48 51 51 52 61 74 81 85
78 84 87 89 88 89 91 92 98 104 106 105 102 98 95 93 90 89 89 87 82 79 79 79 80 80 78 77 76 73 71 70 69 64 59 56 56 56 54 49 43 43 45 38 27 22 24 27 31 35 37 37 36 33 33 36 41 41 37 34 30 25 21 18 19 21 19 15 14 6 354 351 356 358 357 1 6 16 47 69 76 77 75 72 78 86 91
52 58 65 71 75 80 82 82 82 83 86 89 89 85 85 87 84 80 79 78 77 77 77 75 73 74 74 73 70 66 63 64 65 64 59 55 55 56 53 46 39 38 36 29 24 23 23 24 30 35 36 34 34 33 35 40 44 45 43 40 37 33 30 24 22 22 20 17 15 12 5 1 -0 353 345 341 343 351 10 62 99 109 115 116 102 98 103
47 49 53 59 64 67 69 71 73 74 77 82 86 85 85 84 81 77 74 71 73 77 78 74 70 69 68 67 63 57 53 52 54 54 52 49 51 54 52 43 35 33 31 30 30 28 24 24 28 32 31 28 29 33 39 44 46 43 42 42 39 35 33 29 24 21 19 15 14 17 16 13 11 7 358 346 334 337 355 18 41 75 109 133 132 126 131
48 48 47 51 54 55 56 59 61 60 61 63 64 69 74 76 76 74 71 67 69 73 75 74 73 69 65 64 63 56 49 45 45 47 51 52 52 53 49 39 31 29 30 32 33 29 26 27 28 28 27 26 27 33 43 48 47 43 41 43 41 38 36 33 29 25 20 16 16 18 18 14 11 11 6 351 338 342 358 13 20 35 109 148 141 139 148
49 49 48 47 48 48 51 55 55 55 56 56 57 61 66 70 72 71 68 68 69 69 67 67 70 68 65 67 67 62 55 51 50 52 54 55 53 52 49 38 30 28 31 34 33 30 29 29 28 27 28 29 31 41 49 51 47 43 43 43 42 41 38 34 30 26 23 20 19 18 15 11 10 11 10 4 357 1 5 2 349 331 200 166 154 154 160
51 56 58 58 57 58 60 60 57 55 54 54 57 62 66 69 71 71 69 67 68 68 67 66 68 68 64 63 64 61 57 54 55 56 57 55 52 51 49 41 33 31 34 37 36 34 34 33 31 33 37 38 43 51 56 52 44 41 42 40 38 38 35 29 24 22 22 24 25 22 16 13 12 13 13 12 10 10 14 8 344 314 272 195 153 157 164
47 53 57 59 61 64 66 66 64 61 54 50 54 61 66 69 71 71 68 63 62 64 63 61 60 58 55 53 55 53 48 44 49 57 60 58 55 52 51 46 38 35 38 41 41 41 40 37 37 45 52 56 57 59 58 52 45 43 42 39 37 37 35 30 25 22 22 25 26 24 21 19 18 17 16 15 12 10 15 29 57 127 171 156 149 157 163
45 48 49 53 56 59 61 63 66 68 63 54 50 54 61 65 66 65 63 61 59 57 55 52 52 52 52 53 54 50 41 36 40 49 58 61 56 50 47 46 43 42 43 46 47 46 42 38 41 51 58 61 62 61 57 51 46 45 44 42 41 41 39 37 34 31 29 28 27 24 23 24 25 25 24 20 15 13 15 23 44 80 107 123 146 161 161
42 43 46 52 56 56 56 59 64 69 71 64 55 51 55 61 61 58 58 60 58 54 50 49 49 51 53 56 58 58 53 49 46 47 53 60 56 46 42 45 48 47 46 48 50 47 43 44 50 56 58 59 59 59 55 50 47 46 45 43 43 42 41 40 39 36 34 32 30 27 25 25 27 30 32 30 28 27 28 32 40 55 86 123 147 157 156
39 40 41 45 49 50 54 63 69 70 68 65 57 48 48 55 57 55 56 58 59 56 54 52 51 51 54 58 61 61 61 60 59 58 58 61 59 53 50 51 52 51 51 51 49 43 42 48 55 58 58 56 55 53 50 48 48 47 46 44 43 42 41 41 40 39 37 34 32 31 31 31 30 30 32 34 36 35 34 36 40 45 55 79 105 120 129
40 40 37 40 47 53 59 66 68 65 63 62 59 49 48 53 56 56 58 61 62 60 58 55 53 52 54 56 56 55 56 60 61 58 56 56 58 57 53 53 54 55 55 53 49 46 48 53 57 58 57 55 52 47 45 46 46 46 45 45 44 42 41 41 41 40 39 37 34 34 35 36 38 38 39 39 39 38 37 38 40 41 45 53 62 65 67
45 45 43 47 52 55 57 62 64 61 59 63 68 63 58 59 60 58 57 60 61 59 57 55 52 49 50 51 51 51 55 61 61 53 46 47 52 53 50 52 58 60 57 52 50 50 53 58 59 58 55 53 49 45 44 45 44 43 44 44 43 42 41 41 41 41 42 41 40 40 39 38 38 41 43 45 45 45 45 44 42 40 40 44 48 49 48
45 46 47 49 48 44 45 54 60 59 60 64 67 64 62 64 63 56 52 55 60 59 57 54 52 49 48 49 50 50 54 60 63 59 51 52 56 56 53 53 59 61 58 52 47 47 49 54 57 56 52 48 46 46 46 47 46 46 46 45 44 44 43 42 42 43 44 44 44 45 44 43 41 41 44 47 49 50 50 49 47 45 42 41 41 41 40
43 44 44 45 42 39 42 50 55 55 57 61 61 59 61 64 62 54 48 52 61 64 62 59 54 49 47 49 50 50 51 54 58 60 59 58 59 60 60 58 59 61 60 55 48 43 43 46 49 49 47 45 45 46 45 46 47 48 48 47 47 48 47 45 45 45 45 45 45 45 45 45 46 46 47 50 51 51 51 51 51 50 49 47 45 43 40
46 46 46 48 48 49 50 52 52 53 55 58 60 62 66 69 67 58 49 48 56 65 67 63 56 49 46 47 48 48 49 50 52 54 55 54 53 55 57 58 60 61 60 55 49 44 42 41 42 43 45 46 47 46 46 46 46 46 47 48 48 48 47 46 45 44 43 44 45 44 43 44 45 46 47 51 54 55 54 53 53 54 54 55 55 54 52
47 46 47 53 56 55 52 50 47 46 48 52 57 61 65 69 69 63 52 45 47 55 63 64 58 50 46 46 48 48 48 49 49 49 49 49 48 48 50 52 53 53 53 50 47 45 44 43 42 42 45 47 47 47 47 47 47 46 46 46 47 47 48 48 48 48 48 48 47 45 44 44 45 45 46 48 52 55 56 57 57 58 58 58 58 58 58